Location: Austin
(30.3000°N, 97.7500°W)
Time: 11:45:53
(UTC-05:00)

Cosmos 2061 Rocket - Pass Details

Date: 05 September 2024
Orbit: 966 x 1011 km, 82.9° (Epoch: 11 September)

Event Time Altitude Azimuth Distance (km) Brightness Sun altitude
Rises 20:17:54 0° 166° (SSE) 3,697 6.8 -7.2°
Reaches altitude 10° 20:20:32 10° 159° (SSE) 2,757 6.1 -7.7°
Maximum altitude 20:26:28 43° 90° (E) 1,370 4.4 -9.0°
Drops below altitude 10° 20:32:28 10° 21° (NNE) 2,791 6.3 -10.2°
Sets 20:35:07 0° 15° (NNE) 3,746 7.1 -10.8°
